Everett, WA

12:52 PM PST on February 22, 2017 (GMT -0800)
MT5SR2 | | Change Station

Elev 9 ft 47.98 °N, 122.19 °W | Updated 1 hour ago

Mostly Cloudy
Mostly Cloudy
--
Feels Like --
N
2.0
Wind Variable Wind from ESE

Today
High -- | Low -- °F
--% Chance of Precip.
Yesterday
High -- | Low -- °F
Precip. -- in
Pressure 30.18 in
Visibility 10.0 miles
Clouds Scattered Clouds 1900 ft
Dew Point Not available.
Humidity Not available.
Rainfall 0.55 in
Snow Depth Not available.
7:01 AM 5:42 PM
Waning Crescent, 15% visible
SPECI KPAE 222004Z 21008KT 10SM SCT019 06/02 A3018 RMK AO2 T00560022
Pressure 30.18 in
Visibility 10.0 miles
Clouds Scattered Clouds 1900 ft
Dew Point Not available.
Humidity Not available.
Rainfall 0.55 in
Snow Depth Not available.
7:01 AM 5:42 PM
Waning Crescent, 15% visible
SPECI KPAE 222004Z 21008KT 10SM SCT019 06/02 A3018 RMK AO2 T00560022

Get Your Daily Forecast Email!

Thanks for signing up!

Be on the lookout for a verification email in your inbox.

You'll start receiving the daily forecast at 8 AM.

×

10-Day Weather Forecast

Almanac

Astronomy

Feb. 22, 2017 Rise Set
Actual Time
Civil Twilight
Nautical Twilight
Astronomical Twilight
Moon
Length of Visible Light
Length of Day
Tomorrow will be .
, % of the Moon is Illuminated

Today's Extremes

State Highs State Lows

Community

WunderPhotos

Upload Photos

1,962,540 photos uploaded!

WunderBlog® & News

Nearby

Air Quality

  Air Quality AQ Index Pollutant
Not available.

Snow Depth

Station Depth Elevation

Earthquake Activity

City Distance Mag. Time & Date
Minimum magnitude displayed is 2.5.

Coastal Water Temperatures

Place Temperature

Stations

Nearby Weather Stations

Station Location Temp. Windchill Dew Point Humidity Wind Precip. Elev Updated Type
                   

Watches & Warnings

There are currently no watches in effect.